Location: Rancho Del Sol Observatory
(38.7214°N, 120.6350°W)
Time: 23:40:48
(UTC-07:00)

Cosmos 2221 Rocket - Visible Passes

Search period start: 27 July 2017 00:00
Search period end: 06 August 2017 00:00
Orbit: 620 x 649 km, 82.5° (Epoch: 26 July)

Date Brightness Start Highest point End Pass type
(mag) Time Alt. Az. Time Alt. Az. Time Alt. Az.
27 Jul 3.9 21:06:40 10° N 21:11:00 50° E 21:15:21 10° SSE visible
27 Jul 6.4 22:46:49 10° WNW 22:48:41 13° W 22:50:34 10° WSW visible
28 Jul 3.8 21:28:47 10° NNW 21:33:14 73° W 21:37:40 10° S visible
29 Jul 5.2 21:51:21 10° NNW 21:55:20 33° W 21:59:19 10° SSW visible
30 Jul 4.1 20:35:16 10° N 20:39:29 40° ENE 20:43:42 10° SSE visible
30 Jul 6.3 22:14:38 10° NW 22:17:18 16° W 22:19:57 10° WSW visible
31 Jul 3.6 20:57:16 10° N 21:01:46 89° E 21:06:15 10° S visible
01 Aug 4.9 21:19:41 10° NNW 21:23:53 41° W 21:28:05 10° SSW visible
02 Aug 6.2 21:42:41 10° NW 21:45:54 20° W 21:49:06 10° SW visible
04 Aug 4.5 20:48:05 10° NNW 20:52:27 52° W 20:56:48 10° S visible
05 Aug 6.0 21:10:53 10° NW 21:14:29 24° W 21:18:05 10° SW visible
